Location: Poughquag
(41.6090°N, 73.6820°W)
Time: 20:27:06
(UTC-05:00)

Hubble Space Telescope - Pass Details

Date: 21 November 2019
Orbit: 536 x 540 km, 28.5° (Epoch: 11 December)

Event Time Altitude Azimuth Distance (km) Brightness Sun altitude
Rises 19:06:27 0° 237° (WSW) 2,669 5.2 -29.0°
Reaches altitude 10° 19:09:46 10° 209° (SSW) 1,779 3.7 -29.6°
Enters shadow 19:10:04 11° 205° (SSW) 1,726 3.6 -29.6°
